METEOR 2-7 DEB

Satellite information

Favourite Embed

Satellite Type and Status

DEBRISIN ORBIT

Key statistics

Satellite METEOR 2-7 DEB at a glance.

Uptime

16237

Days in orbit

Revolutions

≈ 14.3

Per day

Orbit

LEO

Low Earth Orbit

Inclination

81.3

Latest

Satellite identification and parameters

Extended collection of information and parameters for METEOR 2-7 DEB.

Object identification

Identified? True

Debris? True

Object name: METEOR 2-7 DEB

International designator: 1981-043Y

Object number (NORAD): 43301

Object ID (CCSDS): 43301

Country: COMMONWEALTH OF INDEPENDENT STATES (CIS)

Current information (Y/N): Y

RCS size: SMALL

Orbital parameters

Period: 100.808 minutes

Inclination: 81.258 deg

SMA: 7175.021 km

Apoapsis: 829.099 km

Periapsis: 764.673 km

RAAN: 299.1833 deg

Eccentricy: 0.00448954

Argument of periapsis: 354.4309 deg

Mean anomaly: 5.6366 deg

Mean motion: 14.28459718 rev/day

Mean motion (dot): 0.00005249 rev/day2

B* drag term: 0.0020700319 1/REarth

Two-line elements (TLE)

Creation date: Oct. 27, 2025, 2:46 a.m.

Reference frame: TEME

Reference center: EARTH

Epoch: Oct. 26, 2025, 5:55 p.m. UTC

TLE line 0: 0 METEOR 2-7 DEB

TLE line 1: 1 43301U 81043Y 25299.74689160 .00005249 00000-0 20700-2 0 9996

TLE line 2: 2 43301 81.2580 299.1833 0044895 354.4309 5.6366 14.28459718481480

Live tracking on map

Real-time ground track for satellite METEOR 2-7 DEB.

In-orbit conjunctions

A list of the most updated potential collisions computed for object METEOR 2-7 DEB.

Target Orbit TCA Probability of collision Miss distance Type
FENGYUN 1C DEB SSO 2025-08-01 13:18:41 0.0006746886 43.0 (m) DEBRIS
CZ-6A DEB SSO 2025-01-28 01:54:42 0.0001116069 155.0 (m) DEBRIS
DMSP 5D-2 F13 DEB SSO 2024-07-14 13:12:28 0.000400895 52.0 (m) DEBRIS

Associated space launch

Second generation soviet meteorological satellite

METEOR 2-7 DEB was lifted into orbit during the mission ‘Vostok 8A92M | Meteor-2 7’, on board a Vostok 8A92M space rocket.

The launch took place on May 14, 1981, 9:45 p.m. from 43/3 (43L).

For more information about the launch, click the button.

Launch to space Vostok 8A92M | Meteor-2 7
Vostok 8A92M | Meteor-2 7

Agency: N/A

Status: Launch Successful

Launch date: May 14, 1981, 9:45 p.m. UTC

Rocket: Vostok 8A92M

Launch pad: 43/3 (43L)

Location: Plesetsk Cosmodrome, Russian Federation

...

Latest news about this satellite

There are no fresh news available about this satellite. Check back as we update our databases every day.


Newsletter sign-up

Weekly statistics, charts and insights to help you stay on top of the space industry.